PWSweather.com
Personal Weather Stations
Station Observations
GEELONGWX1
Bell Post Hill, GeelongAU

Bell Post HillGeelongAU

Lat: -38.101, Lon: 144.326

Elevation: 204

Station Type: Davis Vantage Pro2

http://www.geelongweather.com

Latest ConditionsUpdated 4:50:01 AM GMT+10:10 Tuesday, Aug 21, 2018
Currently Today's Max Today's Min Today's Average
Temperature 45.0°F7.2°C 48.0°F8.9°C 44.4°F6.9°C 46.3°F7.9°C
Dew Point 42.5°F5.8°C 44.9°F7.2°C 41.7°F5.4°C 43.5°F6.4°C
Winds 1.2 mph SSW1.9 kmh SSW 6.9 mph -11.1 kmh - - 2.9 mph 4.7 kmh
Wind Gusts 3.5 mph5.6 kmh 11.5 mph18.5 kmh - -
Humidity 91% 91% 88% 90%
Pressure 30.09 in1019.0 mb 30.12 in1020.0 mb 30.08 in1018.6 mb -
Precipitation - 0.01 in0.3 mm - -
Hour Temp Dew Point Humidity Winds Wind Gusts Pressure Precip Precip Rate Daily Precip Total
04:50 AM 45.0°F7.2°C 42.5°F5.8°C 91% 1.2 mph SSW1.9 kmh SSW 3.5 mph5.6 kmh 30.09 in1019.0 mb - 0.00 in0.0 mm 0.01 in0.3 mm
04:40 AM 44.8°F7.1°C 42.3°F5.7°C 91% 2.3 mph SW3.7 kmh SW 2.3 mph3.7 kmh 30.09 in1019.0 mb - 0.00 in0.0 mm 0.01 in0.3 mm
04:30 AM 44.5°F6.9°C 42.0°F5.6°C 91% 3.5 mph SW5.6 kmh SW 3.5 mph5.6 kmh 30.09 in1019.0 mb - 0.00 in0.0 mm 0.01 in0.3 mm
04:20 AM 44.4°F6.9°C 41.7°F5.4°C 90% 1.2 mph SW1.9 kmh SW 2.3 mph3.7 kmh 30.09 in1019.0 mb - 0.00 in0.0 mm 0.01 in0.3 mm
04:10 AM 44.6°F7.0°C 41.8°F5.4°C 90% 1.2 mph SW1.9 kmh SW 1.2 mph1.9 kmh 30.09 in1019.0 mb - 0.00 in0.0 mm 0.01 in0.3 mm
04:00 AM 44.8°F7.1°C 42.0°F5.6°C 90% 1.2 mph SSW1.9 kmh SSW 3.5 mph5.6 kmh 30.09 in1019.0 mb - 0.00 in0.0 mm 0.01 in0.3 mm
03:50 AM 45.0°F7.2°C 42.3°F5.7°C 90% 2.3 mph SW3.7 kmh SW 3.5 mph5.6 kmh 30.08 in1018.6 mb - 0.00 in0.0 mm 0.01 in0.3 mm
03:40 AM 45.3°F7.4°C 42.8°F6.0°C 91% 2.3 mph SW3.7 kmh SW 5.8 mph9.3 kmh 30.09 in1019.0 mb - 0.00 in0.0 mm 0.01 in0.3 mm
03:30 AM 45.5°F7.5°C 42.8°F6.0°C 90% 1.2 mph SSW1.9 kmh SSW 3.5 mph5.6 kmh 30.09 in1019.0 mb - 0.00 in0.0 mm 0.01 in0.3 mm
03:20 AM 45.8°F7.7°C 43.0°F6.1°C 90% 1.2 mph SW1.9 kmh SW 4.6 mph7.4 kmh 30.09 in1019.0 mb - 0.00 in0.0 mm 0.01 in0.3 mm
03:10 AM 46.0°F7.8°C 43.5°F6.4°C 91% 3.5 mph SW5.6 kmh SW 5.8 mph9.3 kmh 30.09 in1019.0 mb - 0.00 in0.0 mm 0.01 in0.3 mm
03:00 AM 46.0°F7.8°C 43.5°F6.4°C 91% 2.3 mph SW3.7 kmh SW 3.5 mph5.6 kmh 30.09 in1019.0 mb - 0.00 in0.0 mm 0.01 in0.3 mm
02:50 AM 46.1°F7.8°C 43.3°F6.3°C 90% 3.5 mph SW5.6 kmh SW 5.8 mph9.3 kmh 30.10 in1019.3 mb - 0.00 in0.0 mm 0.01 in0.3 mm
02:40 AM 46.3°F7.9°C 43.5°F6.4°C 90% 3.5 mph SW5.6 kmh SW 5.8 mph9.3 kmh 30.10 in1019.3 mb - 0.00 in0.0 mm 0.01 in0.3 mm
02:30 AM 46.3°F7.9°C 43.5°F6.4°C 90% 3.5 mph SW5.6 kmh SW 6.9 mph11.1 kmh 30.10 in1019.3 mb - 0.00 in0.0 mm 0.01 in0.3 mm
02:20 AM 46.3°F7.9°C 43.5°F6.4°C 90% 3.5 mph SW5.6 kmh SW 6.9 mph11.1 kmh 30.11 in1019.6 mb - 0.00 in0.0 mm 0.01 in0.3 mm
02:10 AM 46.4°F8.0°C 43.6°F6.4°C 90% 4.6 mph SW7.4 kmh SW 6.9 mph11.1 kmh 30.11 in1019.6 mb - 0.00 in0.0 mm 0.01 in0.3 mm
02:00 AM 46.5°F8.1°C 43.7°F6.5°C 90% 2.3 mph SW3.7 kmh SW 3.5 mph5.6 kmh 30.11 in1019.6 mb - 0.00 in0.0 mm 0.01 in0.3 mm
01:50 AM 46.6°F8.1°C 43.9°F6.6°C 90% 2.3 mph SW3.7 kmh SW 4.6 mph7.4 kmh 30.11 in1019.6 mb - 0.00 in0.0 mm 0.01 in0.3 mm
01:40 AM 46.9°F8.3°C 44.1°F6.7°C 90% 2.3 mph SW3.7 kmh SW 3.5 mph5.6 kmh 30.11 in1019.6 mb - 0.00 in0.0 mm 0.01 in0.3 mm
01:30 AM 47.0°F8.3°C 44.2°F6.8°C 90% 3.5 mph SW5.6 kmh SW 5.8 mph9.3 kmh 30.11 in1019.6 mb - 0.00 in0.0 mm 0.01 in0.3 mm
01:20 AM 47.0°F8.3°C 44.0°F6.7°C 89% 4.6 mph SW7.4 kmh SW 8.1 mph13.0 kmh 30.11 in1019.6 mb - 0.00 in0.0 mm 0.01 in0.3 mm
01:10 AM 47.2°F8.4°C 44.2°F6.8°C 89% 2.3 mph S3.7 kmh S 3.5 mph5.6 kmh 30.11 in1019.6 mb - 0.00 in0.0 mm 0.01 in0.3 mm
01:00 AM 47.5°F8.6°C 44.4°F6.9°C 89% 3.5 mph SW5.6 kmh SW 5.8 mph9.3 kmh 30.11 in1019.6 mb - 0.00 in0.0 mm 0.01 in0.3 mm
12:50 AM 47.7°F8.7°C 44.6°F7.0°C 89% 3.5 mph SSW5.6 kmh SSW 5.8 mph9.3 kmh 30.11 in1019.6 mb - 0.00 in0.0 mm 0.01 in0.3 mm
12:40 AM 47.9°F8.8°C 44.8°F7.1°C 89% 4.6 mph SSW7.4 kmh SSW 6.9 mph11.1 kmh 30.12 in1020.0 mb - 0.00 in0.0 mm 0.01 in0.3 mm
12:30 AM 48.0°F8.9°C 44.9°F7.2°C 89% 6.9 mph SW11.1 kmh SW 11.5 mph18.5 kmh 30.11 in1019.6 mb - 0.00 in0.0 mm 0.01 in0.3 mm
12:20 AM 47.9°F8.8°C 44.8°F7.1°C 89% 3.5 mph SSW5.6 kmh SSW 6.9 mph11.1 kmh 30.12 in1020.0 mb - 0.01 in0.3 mm 0.01 in0.3 mm
12:10 AM 47.9°F8.8°C 44.5°F6.9°C 88% 3.5 mph S5.6 kmh S 9.2 mph14.8 kmh 30.12 in1020.0 mb - 0.00 in0.0 mm 0.00 in0.0 mm
12:00 AM 47.9°F8.8°C 44.5°F6.9°C 88% 3.5 mph SSW5.6 kmh SSW 6.9 mph11.1 kmh 30.12 in1020.0 mb - 0.00 in0.0 mm 0.00 in0.0 mm